CAPE
6 10 9 8 38 37 63 67 69 85 120 157 157 120 124 126 136 74 85 132 213 67 19 6 1 12 4 21 3 1 0 1 1 5 60 68 30 8 0 0 0 0 0 0 0 0 0 6 7 0 248 215 15 27
8 9 10 18 39 64 58 55 58 63 106 235 281 250 73 111 114 114 29 47 155 73 19 0 2 1 0 0 7 9 0 0 3 12 0 0 1 41 0 0 0 0 0 0 0 0 0 1 324 59 40 350 195 153
6 15 16 27 49 82 70 74 111 72 115 214 201 152 149 148 23 74 75 55 96 55 1 3 0 0 0 0 0 21 5 5 7 1 4 1 0 0 87 0 0 0 0 0 0 16 0 0 0 37 108 308 318 369
5 9 11 38 74 74 89 80 122 73 62 144 131 61 25 21 46 46 86 30 75 75 57 0 0 0 0 0 0 0 0 20 41 4 11 12 7 0 16 2 0 0 10 77 0 0 0 0 23 153 379 266 172 154
4 6 21 56 75 67 81 84 66 54 39 38 46 4 1 12 53 97 58 30 36 48 21 7 0 0 0 0 0 0 0 3 18 27 24 40 43 24 1 1 0 0 30 31 3 14 390 52 39 53 116 61 105 14
13 17 31 42 52 58 57 45 51 45 56 23 33 32 24 64 20 14 15 0 0 38 45 35 0 0 0 0 0 0 0 19 45 34 16 64 26 34 16 61 13 0 0 0 24 9 7 0 22 21 0 0 0 0
10 9 11 11 28 59 77 43 26 50 50 39 38 42 54 29 2 10 0 46 0 16 13 11 14 38 0 0 0 2 3 28 38 19 68 56 27 44 43 12 0 0 0 0 0 0 0 0 0 0 0 0 0 0
2 5 6 6 7 22 43 32 30 22 30 44 44 46 49 24 11 6 0 0 42 12 17 33 36 44 14 19 9 14 16 21 35 53 41 93 67 48 33 18 0 0 0 0 0 0 0 0 0 0 0 0 0 0
0 1 1 2 3 1 11 16 43 50 32 22 20 8 0 12 10 0 6 28 19 17 25 14 5 62 30 3 49 110 96 27 98 26 50 37 33 18 0 1 0 0 0 0 0 0 0 0 0 0 0 0 0 0
0 0 0 0 1 1 0 0 3 11 5 4 0 3 5 0 0 0 31 9 10 16 21 13 9 14 13 8 26 78 60 40 17 19 30 33 29 17 2 0 0 0 0 0 0 0 0 0 0 0 0 0 0 0
0 0 0 0 1 1 0 0 1 4 0 4 4 3 0 0 6 16 27 28 13 20 22 19 12 9 4 42 38 49 21 49 11 10 18 36 20 10 0 0 0 0 0 0 0 0 0 0 0 0 0 0 0 0
0 0 0 0 1 0 0 0 5 2 0 0 3 4 4 9 20 15 9 12 14 15 19 23 23 18 16 13 45 33 20 40 5 37 41 12 36 29 1 0 0 0 0 0 0 0 0 0 0 0 0 0 0 0
0 0 0 0 0 0 0 2 5 5 1 6 5 13 6 6 1 2 1 4 12 13 13 40 45 40 24 51 51 38 22 14 40 18 25 59 77 71 71 33 20 23 10 2 0 0 0 0 0 0 0 0 0 0
0 0 0 0 0 0 0 2 2 0 0 1 0 1 4 20 5 5 9 13 2 6 19 24 35 35 12 27 41 13 9 17 10 14 43 24 9 87 167 108 108 81 40 7 0 0 0 0 0 0 0 0 0 0
0 0 0 0 0 0 1 0 0 0 0 3 2 2 13 12 1 6 8 11 5 5 7 9 12 7 1 0 10 47 24 19 22 26 13 5 4 5 67 68 67 41 7 0 0 0 0 0 0 0 0 0 0 0
0 1 0 0 0 0 0 0 0 0 0 18 0 1 3 3 1 7 5 3 5 2 5 4 0 3 18 9 11 17 14 10 17 16 7 2 0 0 2 94 73 41 11 0 0 0 0 0 0 0 0 0 1 1
0 0 0 0 0 0 0 0 0 0 0 0 0 0 1 4 3 5 3 0 3 0 1 0 2 14 15 4 12 20 8 5 3 2 5 5 3 1 0 82 81 60 22 0 0 0 0 0 0 0 0 1 0 0
0 0 0 0 1 0 0 0 0 0 0 0 0 0 0 1 1 2 0 0 1 0 0 6 9 15 20 6 6 3 0 1 1 1 9 16 8 4 0 11 125 81 32 0 0 0 0 0 0 0 0 0 0 0
0 0 0 0 0 0 0 0 0 0 0 0 0 0 0 0 0 0 0 0 0 0 1 3 1 10 25 13 3 15 5 8 11 5 3 6 7 3 2 0 74 53 23 0 0 0 4 13 19 7 0 0 0 0
0 0 0 0 0 0 0 0 0 0 0 0 0 0 0 0 0 0 0 0 0 4 14 14 5 10 6 2 6 17 5 6 22 6 11 5 9 4 4 54 58 31 11 6 9 2 72 63 37 36 31 18 16 0
0 0 0 0 0 0 0 0 0 0 0 0 0 0 0 0 0 0 0 0 0 1 24 2 5 33 11 0 0 2 2 7 3 2 0 2 2 8 80 102 87 137 189 83 43 39 25 113 112 62 44 41 35 25
0 0 0 0 0 0 0 1 0 0 0 0 0 0 22 55 6 56 4 45 31 48 42 45 47 36 73 15 0 1 0 13 88 41 12 8 13 7 43 85 99 127 159 188 151 147 157 148 149 61 0 44 15 29
0 0 0 0 0 0 0 1 0 0 16 31 46 37 71 122 98 73 88 79 54 11 3 9 9 8 14 4 11 40 16 26 75 84 95 62 80 93 114 114 100 147 166 206 154 104 74 25 27 0 0 10 18 6
0 2 1 0 0 0 0 0 0 0 0 37 75 49 79 90 62 142 97 128 100 73 60 6 39 121 96 76 23 32 44 13 4 2 0 192 19 208 9 0 0 0 4 26 31 19 2 2 0 14 28 1 0 2
0 0 0 0 0 0 24 41 48 37 47 55 44 45 88 89 69 54 78 66 44 36 34 35 15 18 16 24 9 4 0 9 18 8 0 3 20 3 0 0 0 0 0 4 6 2 0 0 0 1 24 63 73 40
0 0 5 31 29 66 46 46 62 83 70 88 56 37 38 60 52 32 77 59 20 0 0 0 2 2 2 0 1 1 1 1 3 0 0 0 0 0 0 0 0 0 0 0 0 0 0 0 0 0 3 3 1 2
0 58 46 0 3 10 19 6 0 6 4 5 20 2 19 26 32 66 50 0 0 0 0 0 0 0 0 0 0 0 0 0 0 0 0 0 0 0 0 0 0 0 0 0 0 0 0 0 0 0 0 0 2 7
63 71 153 49 36 2 31 34 15 8 3 5 4 3 17 27 42 22 0 0 0 0 0 0 0 0 0 0 0 0 0 0 0 0 0 0 0 0 0 0 0 0 0 0 0 0 1 0 1 6 15 26 33 34
255 165 30 1 10 64 62 88 79 57 44 50 28 4 10 12 15 10 1 0 0 0 0 0 0 0 0 0 0 0 0 0 0 0 0 0 0 0 0 0 0 0 0 0 0 0 0 0 0 0 0 0 0 0
158 28 180 8 0 22 122 187 43 30 12 10 23 33 29 26 8 0 0 0 0 0 0 0 0 0 0 0 0 0 0 0 0 0 0 0 0 0 0 0 0 0 0 0 0 0 0 0 0 0 0 0 0 0
15 69 190 179 194 46 57 56 27 51 15 9 4 1 9 18 4 0 0 0 0 0 0 0 0 0 0 0 0 0 0 0 0 0 0 0 0 0 0 0 0 0 0 0 0 0 0 0 0 0 0 1 1 0
9 151 273 100 309 235 41 37 74 0 1 1 7 22 30 46 7 0 0 0 0 0 0 0 0 0 0 0 0 0 0 0 0 0 0 0 0 0 0 0 0 0 0 0 0 0 0 0 0 0 0 4 12 8
192 38 28 6 71 245 179 80 143 256 72 88 23 20 13 36 66 0 0 0 0 0 0 0 0 0 0 0 0 0 0 0 0 0 0 0 0 0 0 0 0 0 0 0 0 0 0 0 0 1 2 5 7 7
CIN
0 0 0 0 0 0 0 0 0 0 0 0 0 0 0 0 0 -1 -2 -3 0 0 -1 0 -2 0 0 0 0 0 0 0 -25 -12 -8 -1 -3 0 0 0 0 0 0 0 0 0 0 -164 -129 0 -159 -403 -358 -472
0 0 0 0 0 0 0 0 0 -2 0 0 -3 0 -9 0 0 -3 0 -1 -1 0 0 0 0 0 0 0 0 0 0 0 0 0 0 0 -46 -56 0 0 0 0 0 0 0 0 0 -34 -349 -478 -673 -510 -561 -607
0 0 0 0 0 0 -5 -1 0 0 0 -2 -3 -2 0 -1 -5 -6 -2 -1 0 0 0 0 0 0 0 0 0 0 0 0 0 -10 0 0 0 -18 -13 0 0 0 0 0 0 -138 0 0 -15 -710 -686 -603 -662 -686
0 0 0 0 0 0 0 -1 -1 -3 -1 -1 -5 -3 -7 -2 -14 -4 0 -3 0 0 0 0 0 0 0 0 0 0 0 -6 -2 -2 0 0 0 0 -58 -10 0 0 -121 -160 0 0 0 0 -655 -644 -651 -699 -740 -790
0 0 0 0 0 0 0 0 -4 -2 -1 -1 -3 -8 -3 -3 -4 -2 0 -4 -1 0 -1 0 0 0 0 0 0 0 0 0 -2 0 0 0 -29 -9 0 0 0 0 -160 -138 -5 -237 -240 -458 -654 -669 -654 -704 -717 -525
0 0 0 0 0 0 -1 0 0 -1 0 -1 0 -2 -2 0 -5 -2 0 0 -1 0 0 0 0 0 0 0 0 0 0 0 0 0 0 -1 -6 0 0 -46 -174 0 0 0 -377 -312 -538 0 -670 -627 -8 -25 -25 0
0 0 0 0 0 0 0 -1 -1 0 -4 -5 -2 -1 -1 -2 -1 0 0 0 0 -3 0 -3 0 -16 0 0 0 0 0 0 0 0 0 0 0 -1 0 0 -1 0 0 0 0 0 0 0 0 0 0 0 0 0
0 0 0 0 0 0 0 0 -2 -3 0 -1 -3 -1 -1 -2 0 0 0 0 -3 0 0 0 0 -2 -2 -17 0 0 0 0 0 0 0 0 0 -1 0 -144 -1 0 0 0 0 0 0 0 0 0 0 0 0 0
0 0 0 0 0 0 -12 -10 -1 0 0 -1 -1 0 0 0 0 -1 -14 -7 -1 -1 0 0 0 0 -17 0 -20 -19 -32 0 -13 -34 0 0 -1 0 0 0 0 0 0 0 0 0 0 0 0 0 0 0 0 0
0 0 0 0 0 0 0 -1 -2 -10 0 0 0 0 -4 0 0 -1 -3 0 0 0 0 0 0 0 -5 0 0 0 0 0 0 0 0 -2 0 0 0 0 0 0 0 0 0 0 0 0 0 0 0 0 0 0
0 0 0 0 0 0 0 0 0 -1 0 0 0 0 0 0 -3 0 0 0 0 0 0 0 0 0 -5 0 0 0 0 0 0 0 0 0 0 0 0 0 0 0 0 0 0 -90 -90 0 0 0 0 0 0 0
0 0 0 0 0 0 0 0 0 0 0 0 0 0 0 0 0 0 0 0 0 0 0 0 0 0 -1 -3 0 -1 0 0 0 0 0 0 0 0 0 0 0 0 0 0 0 0 0 0 0 0 0 0 0 0
0 0 0 0 0 0 0 0 0 0 0 0 0 0 0 0 0 0 0 0 0 0 0 0 -2 0 0 -2 0 0 0 0 0 0 0 0 0 0 -2 -38 -86 -104 -105 -116 0 0 0 0 0 0 0 0 0 0
0 0 0 0 0 0 0 0 0 0 0 0 0 -1 0 0 0 0 0 0 0 0 -1 0 0 -1 -3 0 0 0 -4 -1 0 0 0 -4 -32 -26 -29 -56 -74 -81 -96 -134 0 0 0 0 0 0 0 0 0 0
0 0 0 0 0 0 0 0 0 0 -15 -3 -3 0 -1 -1 0 -1 0 0 0 0 0 0 0 0 -1 -4 -6 -1 0 0 0 0 0 0 0 -67 -77 -58 -56 -87 -138 0 0 0 0 0 0 0 0 0 0 0
0 0 0 0 0 0 0 0 0 0 0 -6 0 0 -1 0 0 0 0 0 0 0 0 0 0 -13 -13 -7 -1 0 0 0 0 0 0 0 0 0 -25 -64 -78 -99 -142 0 0 0 0 0 0 0 0 0 0 0
0 0 0 0 0 0 0 0 0 0 0 0 0 0 0 0 0 0 0 0 0 0 -7 0 0 0 -2 0 0 0 0 0 0 0 0 0 0 0 0 -60 -70 -79 -86 0 0 0 0 0 0 0 0 0 0 0
0 0 0 0 0 0 0 0 0 0 0 0 0 0 0 0 0 0 0 0 0 0 0 -4 -17 0 0 0 0 -1 0 0 0 0 -75 -82 -23 0 0 -124 -42 -39 -44 0 0 0 0 0 0 0 0 0 0 0
0 0 0 0 0 0 0 0 0 0 0 0 0 0 0 0 0 0 0 0 0 0 -6 -16 -7 0 -2 -1 -14 -9 -15 -15 -15 -12 0 0 0 0 0 0 -28 -29 -29 0 0 0 -13 -38 -32 -15 0 0 0 0
0 0 0 0 0 0 0 0 0 0 0 0 0 0 0 0 0 0 0 0 0 -5 -3 -1 -1 -3 -1 0 -26 -7 0 0 -7 -17 -6 -6 0 0 0 -14 -17 -34 -28 -25 -21 -3 -17 -19 -33 -42 -38 -37 -10 0
0 0 0 0 0 0 0 0 0 0 0 0 0 0 0 0 0 0 0 0 0 0 -2 -11 -3 0 -4 0 0 0 -21 -28 -35 0 0 -19 -1 -16 -7 -13 -27 -22 -16 -27 -24 -29 -71 -14 -25 -46 -55 -37 -34 -35
0 0 0 0 0 0 0 0 0 0 0 0 -14 0 -57 -51 -88 -65 -38 -43 -42 -55 -53 -32 -13 -8 -2 -49 0 0 0 -73 -34 -60 -48 -35 -14 -44 -31 -37 -42 -33 -38 -31 -34 -27 -24 -34 -45 -59 -31 -41 -146 -48
0 0 0 0 0 0 0 0 0 0 -18 -48 -51 -21 -25 -21 -48 -85 -7 -20 -49 -140 0 -85 -91 -55 -106 -151 -144 -100 -126 -98 -59 -71 -56 -51 -57 -76 -44 -69 -63 -50 -35 -31 -52 -57 -63 -63 -79 0 0 -60 -43 -37
0 0 0 0 0 0 0 0 0 0 0 -52 -28 -10 -18 -37 -85 -31 -3 -7 -56 -107 -125 -198 -132 -73 -95 -91 -95 -106 -107 -79 -58 -53 0 -33 -95 -59 -121 0 0 0 -26 -117 -97 -95 -60 -130 -9 -64 -39 -4 0 -36
0 0 0 -1 -6 0 -78 -54 -53 -43 -23 -51 -21 -14 -20 -58 -11 -1 -3 -35 -108 -70 -59 -54 -64 -73 -41 -38 -59 -71 0 -78 -48 -81 0 -49 -47 -92 -5 0 0 0 0 -60 -70 -67 0 0 0 -19 -28 -31 -30 -55
0 0 -28 -59 -82 -60 -69 -38 -38 -38 -45 -16 -36 -64 -60 -15 -6 -1 -7 -24 -39 0 0 0 -42 -93 -60 -39 -39 -41 -61 -26 -74 0 0 0 0 -8 0 0 0 0 0 0 0 0 0 0 0 -13 -29 -37 -13 -13
0 -38 -53 0 -35 -61 -42 -78 0 -26 -61 -65 -53 -70 -28 -14 -1 -3 -13 -10 0 0 0 0 0 0 0 0 0 0 0 0 0 0 0 0 0 0 0 0 0 0 0 0 0 0 0 0 0 0 0 0 -40 -46
-106 -83 -22 -45 -25 -30 -3 -14 -7 -2 -1 0 -5 -34 -10 -2 -7 -2 0 0 0 0 0 0 0 0 0 0 0 0 0 0 0 0 0 0 0 0 0 0 0 0 0 0 0 0 -32 0 -40 -31 -22 -18 -26 -46
-61 -85 -105 -8 -65 -16 -2 -1 0 0 -1 0 0 0 0 0 0 -1 -45 0 0 0 0 0 0 0 0 0 0 0 0 0 0 0 0 0 0 0 0 0 0 0 0 0 0 0 0 0 0 0 0 0 0 -3
-92 -162 -67 -82 0 -41 -6 0 0 -1 0 -1 -1 -1 0 0 -9 0 0 0 0 0 0 0 0 0 0 0 0 0 0 0 0 0 0 0 0 0 0 0 0 0 0 0 0 0 0 0 0 0 0 0 0 0
-60 -144 -92 -77 -46 -64 -40 -29 -26 -3 -1 0 -3 -1 0 0 -4 0 0 0 0 0 0 0 0 0 0 0 0 0 0 0 0 0 0 0 0 0 0 0 0 0 0 0 0 0 0 0 0 0 0 0 0 0
-107 -112 -85 -80 -45 -33 -59 -31 -4 0 0 0 0 0 0 -1 0 0 0 0 0 0 0 0 0 0 0 0 0 0 0 0 0 0 0 0 0 0 0 0 0 0 0 0 0 0 0 0 0 0 0 0 0 0
-145 -172 -174 -45 -117 -54 -53 -54 -13 0 0 0 -8 -8 -13 -3 0 0 0 0 0 0 0 0 0 0 0 0 0 0 0 0 0 0 0 0 0 0 0 0 0 0 0 0 0 0 0 0 0 0 0 0 0 0
Wind_Speed
18 19 19 20 21 22 22 21 20 20 20 20 18 17 16 14 11 5 3 5 4 4 7 13 16 12 9 7 7 6 9 2 3 5 4 4 6 11 10 12 11 14 13 10 13 14 19 7 8 11 1 1 2 4
19 19 20 21 22 22 22 22 21 20 18 18 18 17 17 16 12 5 3 4 5 5 6 7 11 16 19 22 13 8 8 6 3 4 3 5 4 3 5 15 5 13 11 12 12 8 2 7 3 1 2 5 2 4
20 20 20 21 21 22 23 23 22 19 15 17 14 12 17 11 11 8 4 3 2 4 10 12 14 21 20 23 18 11 8 8 4 4 4 4 7 3 4 8 9 7 4 7 8 7 5 3 3 5 5 4 8 14
20 20 20 20 21 22 23 23 22 12 11 16 10 7 4 6 9 8 4 4 3 3 5 8 8 14 11 15 21 22 18 6 2 4 3 5 5 3 4 7 6 3 2 7 5 3 7 2 2 7 12 18 20 21
19 19 19 20 20 21 22 22 21 11 9 11 9 3 3 4 4 3 4 6 8 4 4 9 19 15 15 19 18 21 20 17 5 2 4 4 4 5 4 5 9 5 4 7 5 15 4 7 10 14 19 22 25 26
19 19 19 19 19 19 19 20 19 14 10 8 8 6 6 6 3 2 3 4 9 7 3 5 4 9 6 9 19 16 14 9 6 4 6 5 4 3 4 5 2 5 7 6 4 9 10 17 15 16 20 20 24 24
19 19 19 19 19 19 18 19 17 16 12 8 9 8 7 4 3 4 2 2 6 4 2 4 5 3 5 10 9 8 11 5 4 3 6 4 3 3 4 6 6 8 7 5 8 20 20 16 14 17 19 20 19 19
19 19 19 19 19 18 16 17 17 15 13 12 9 8 9 5 5 6 6 13 8 1 3 4 4 3 6 5 5 5 6 3 5 3 3 4 2 4 7 10 9 2 10 13 12 10 16 22 20 19 19 18 19 16
18 19 19 19 18 17 17 17 17 18 16 12 10 4 1 3 3 2 2 4 6 3 3 3 2 1 4 5 3 4 4 5 3 4 3 1 2 7 7 9 2 1 7 18 21 21 20 20 19 16 15 15 16 12
18 19 20 20 20 18 17 18 18 18 14 6 2 2 3 4 4 2 4 3 4 4 4 4 3 5 4 8 6 3 3 4 3 4 2 5 4 7 5 4 6 12 12 14 22 18 18 16 15 13 13 11 12 11
20 20 20 21 21 19 17 16 17 16 1 1 2 3 2 6 2 2 3 4 3 4 4 4 6 4 2 3 2 3 3 4 4 4 2 3 2 4 9 5 3 6 8 12 13 14 15 16 14 14 14 12 12 10
20 20 21 22 21 18 16 19 16 3 3 2 0 1 2 2 2 3 3 2 5 3 3 2 1 4 2 2 3 4 4 4 3 3 3 1 2 5 3 4 6 9 13 15 16 15 16 15 13 13 12 11 11 10
21 22 22 21 20 16 22 20 17 9 5 1 2 2 2 1 2 2 4 2 3 3 3 3 2 2 2 3 2 3 3 1 3 0 4 5 9 10 4 8 12 13 16 17 15 16 16 16 15 13 11 9 8 8
21 22 23 23 11 20 20 19 14 4 1 1 2 3 3 3 3 3 6 6 4 4 4 5 3 2 1 3 2 3 2 2 6 6 5 5 8 7 10 11 14 15 16 16 15 14 14 13 12 11 9 7 6 7
22 22 22 8 22 23 22 17 3 2 1 3 3 7 4 6 8 8 6 5 4 5 5 3 2 2 1 2 1 2 1 6 6 4 3 6 10 10 12 13 11 11 12 11 11 11 11 10 9 9 8 6 6 5
21 19 3 17 23 25 21 6 1 1 2 3 5 5 8 5 7 8 10 6 5 6 3 3 2 0 5 4 6 9 5 6 6 4 3 4 6 9 10 9 8 10 11 10 9 10 10 9 9 8 8 7 6 6
16 3 12 21 24 23 9 2 1 5 4 4 3 2 5 6 7 9 9 8 9 4 4 3 7 6 3 5 6 5 3 4 6 4 1 1 5 6 5 7 9 9 9 8 9 9 9 8 7 7 8 5 5 5
3 7 18 21 16 6 4 6 3 4 4 2 4 7 7 4 8 7 8 9 7 6 4 5 2 8 6 5 3 4 3 3 2 3 5 8 5 4 3 6 8 7 7 7 8 7 7 8 8 6 6 5 4 5
10 13 15 16 7 3 4 5 4 3 2 3 5 5 5 5 4 6 6 6 3 2 2 4 6 4 3 1 3 3 4 3 3 3 4 5 4 2 3 4 5 6 7 7 5 4 4 4 4 2 3 3 4 4
8 8 12 8 5 2 3 4 2 2 4 3 4 7 6 4 8 5 5 5 5 4 7 6 5 3 3 2 2 3 3 5 4 5 7 7 5 5 6 4 5 6 6 6 5 1 2 1 1 0 1 0 0 2
5 5 9 5 2 4 4 3 3 2 4 4 3 5 5 4 4 6 7 7 4 4 4 3 3 4 5 4 1 3 1 4 4 2 2 4 6 6 6 5 5 3 4 2 3 2 1 3 3 2 2 2 2 2
3 8 3 3 3 3 4 2 2 2 3 4 5 5 4 6 6 6 7 6 6 4 4 4 3 2 2 4 6 8 8 9 6 3 3 2 3 4 5 4 3 2 2 2 1 1 2 2 2 1 1 2 4 3
5 4 2 3 2 4 1 1 2 4 4 6 4 4 4 5 6 6 4 4 4 4 5 4 5 4 2 3 3 7 7 7 5 6 6 7 5 5 4 4 4 3 3 2 2 2 2 2 1 2 1 3 3 1
1 3 5 4 4 2 2 2 1 2 1 2 3 4 4 4 6 4 4 3 4 4 7 9 5 4 4 8 9 8 8 6 5 6 7 5 6 5 5 6 6 6 4 3 3 3 3 4 4 3 3 3 1 4
4 6 3 6 1 3 3 2 2 1 1 2 2 2 3 3 4 5 5 5 6 7 7 8 9 8 9 9 9 9 9 8 7 9 9 6 4 2 4 7 8 9 9 8 8 8 8 8 7 8 7 4 4 4
6 4 5 5 2 3 3 3 4 4 3 1 3 2 1 1 4 4 3 5 6 8 8 8 8 8 9 9 8 9 8 6 4 9 8 9 9 8 8 8 8 10 10 9 9 9 9 9 8 9 8 8 4 6
5 5 3 1 2 3 3 2 2 3 5 6 4 3 1 3 2 3 3 6 4 4 5 6 8 8 8 8 7 7 7 6 8 7 6 8 9 9 8 9 10 8 9 11 9 10 10 10 10 10 9 8 7 6
2 3 6 8 3 4 4 4 4 4 4 4 6 2 2 3 4 3 3 4 4 4 6 8 8 7 7 7 7 8 8 8 6 5 1 6 6 9 10 8 8 10 8 9 10 10 9 9 9 9 9 7 6 6
1 2 2 5 4 4 4 4 4 3 4 3 2 3 4 4 4 3 4 5 4 6 8 9 9 8 8 6 7 8 8 9 11 13 13 9 9 9 9 8 9 9 9 10 9 10 12 9 9 9 8 7 8 7
2 2 2 3 3 3 3 4 4 4 6 7 5 6 5 4 4 4 4 5 6 7 7 7 7 8 9 9 9 8 7 8 8 8 9 9 8 7 7 8 9 9 9 10 10 10 10 9 9 8 9 8 8 7
1 1 1 1 3 2 2 4 2 3 4 6 6 7 4 4 2 2 4 4 4 6 7 8 7 8 8 8 8 8 8 7 9 9 8 6 5 6 7 7 8 8 9 10 9 9 11 9 9 10 10 10 11 10
1 1 2 2 3 4 4 3 3 2 3 3 3 3 3 3 2 2 5 4 5 7 7 7 7 7 7 6 6 5 4 6 7 8 9 6 6 7 7 7 8 8 9 9 9 9 11 11 10 10 9 10 10 10
2 0 1 1 2 4 3 4 3 4 4 3 2 2 0 1 2 3 3 5 5 5 7 6 4 6 7 7 8 7 7 6 7 7 9 8 8 8 7 7 7 8 9 8 8 9 10 12 10 11 11 11 11 10
Wind_Direction
333 330 328 324 322 322 317 310 307 305 297 289 285 280 277 272 267 181 251 204 217 250 258 247 242 252 261 254 261 310 319 189 274 247 260 212 229 224 246 229 176 176 180 192 216 222 233 160 130 192 268 340 303 252
331 328 326 325 324 324 324 321 318 310 306 297 281 265 266 267 255 219 237 216 216 237 263 265 270 260 252 251 265 251 254 320 297 292 261 294 248 250 254 240 214 218 208 194 206 206 114 182 280 304 233 263 252 157
327 328 327 326 325 323 323 323 321 306 305 315 308 299 280 237 234 225 210 200 213 264 274 247 244 249 243 236 223 237 252 223 233 51 315 291 273 271 247 225 261 218 206 222 169 170 187 229 252 266 210 188 127 116
327 327 324 323 324 325 325 329 335 318 317 336 322 314 8 183 227 177 202 198 221 278 272 278 253 248 230 224 219 224 229 253 67 22 314 272 275 263 274 314 279 320 231 183 192 121 125 177 174 146 138 131 115 116
322 320 321 325 327 328 332 339 340 332 315 332 341 304 262 259 265 245 223 212 221 214 288 292 295 273 249 228 210 207 217 230 246 278 262 255 274 285 272 269 244 203 191 207 191 182 129 141 157 158 145 133 127 125
319 320 324 325 322 321 332 342 346 350 333 317 327 329 282 267 157 199 256 187 214 202 267 290 305 283 276 203 201 200 202 199 194 187 219 238 250 265 289 268 241 279 260 250 332 152 118 127 147 146 139 135 121 114
318 319 319 317 320 323 335 331 329 334 339 317 307 303 292 220 182 223 272 22 165 162 224 266 266 226 55 138 163 174 171 181 176 216 227 245 226 233 253 259 338 313 275 210 184 130 115 127 132 132 115 108 106 105
319 319 318 316 315 316 315 308 310 312 315 314 313 307 284 231 226 267 246 207 157 222 264 264 269 252 191 144 136 156 157 182 207 217 254 233 196 230 255 274 300 306 125 132 142 116 111 120 116 109 110 112 107 112
323 324 325 319 314 312 310 306 310 315 315 299 289 317 144 206 231 243 322 194 189 221 274 241 270 282 174 187 131 191 158 178 197 208 240 223 227 230 273 295 29 53 125 127 109 103 104 96 102 104 105 105 108 110
323 324 326 325 320 313 305 304 312 315 310 308 135 187 239 205 254 254 183 179 178 205 204 246 202 252 248 184 179 141 157 218 198 211 198 217 236 276 295 271 150 120 125 122 104 98 97 98 107 107 105 113 120 124
320 322 324 324 324 320 307 305 313 317 49 203 193 226 300 308 226 203 229 212 197 245 208 226 206 252 202 237 116 146 240 185 196 204 232 239 219 354 341 97 63 64 80 86 91 97 101 107 108 104 94 90 88 83
317 319 322 324 326 319 312 319 321 294 227 138 260 310 294 276 222 260 238 222 220 261 258 248 358 221 225 216 166 179 235 196 189 181 213 232 336 15 63 81 71 77 83 83 84 87 86 87 94 95 92 87 85 85
316 317 319 322 324 312 324 324 327 298 229 159 174 155 358 350 311 293 315 270 255 225 243 286 211 219 195 229 267 222 232 330 171 97 76 53 358 354 70 120 93 93 88 85 91 89 83 77 67 67 71 61 64 63
312 314 317 320 321 325 326 329 332 137 203 10 6 21 18 345 317 276 280 286 245 262 310 322 302 303 19 215 257 359 337 176 11 39 52 24 6 17 56 80 93 94 94 94 90 86 83 82 78 69 62 49 47 48
310 313 316 302 332 327 335 333 347 192 306 9 353 10 353 333 291 284 290 287 318 308 315 272 245 264 251 281 266 343 359 55 42 40 45 6 344 15 41 54 74 86 88 85 83 81 79 79 79 74 59 57 59 57
315 315 254 339 332 326 333 346 172 224 58 25 33 328 312 302 319 337 343 334 4 317 237 222 253 17 33 18 23 10 37 29 6 352 344 323 348 23 31 52 70 78 78 75 70 71 71 69 72 79 76 62 62 59
318 259 330 329 326 321 339 10 7 45 41 20 332 273 297 277 292 325 324 320 338 314 19 360 32 15 321 33 30 22 20 310 319 320 286 356 10 1 15 67 79 85 88 86 88 81 78 76 84 82 72 64 70 66
257 306 320 321 328 314 358 19 52 47 28 0 327 328 319 287 306 337 337 329 347 1 360 49 358 26 42 28 18 343 318 336 331 329 349 347 1 345 356 57 79 84 90 89 94 85 81 72 69 63 54 40 57 51
293 304 310 317 335 350 25 38 15 38 319 307 292 310 314 307 292 307 321 348 332 317 23 26 54 30 40 349 13 353 20 13 355 339 357 3 8 34 52 78 91 107 111 110 121 91 79 64 64 69 65 39 48 41
307 301 328 337 343 49 71 47 22 10 354 315 310 340 315 315 317 314 343 12 5 26 37 31 37 34 2 351 342 4 9 354 351 34 39 34 40 71 82 98 96 104 102 109 112 117 97 100 114 54 339 15 342 73
334 340 340 355 49 51 67 15 69 4 319 326 337 334 304 308 344 350 354 345 33 41 45 47 40 15 11 22 199 219 319 13 6 355 316 4 31 73 90 93 102 103 90 76 63 69 333 349 355 339 295 262 211 209
333 341 342 354 57 60 83 23 350 327 300 307 332 344 352 359 345 2 324 15 26 6 4 341 355 11 82 309 334 336 331 342 9 29 23 26 29 55 54 32 22 65 110 73 325 316 291 276 275 237 228 208 215 211
324 352 356 5 84 47 33 237 352 9 5 349 346 21 8 2 358 329 41 26 13 352 324 325 345 352 43 353 352 4 4 5 38 33 23 17 29 31 29 26 17 3 335 3 352 349 339 322 234 282 245 188 199 217
334 22 29 27 35 44 295 35 20 334 299 12 2 22 12 346 335 25 51 31 330 352 32 23 20 58 71 44 34 21 10 14 54 41 21 16 24 28 43 39 30 25 358 343 11 30 20 357 341 317 315 315 19 326
30 3 30 1 65 353 14 348 359 11 359 15 14 45 17 342 27 45 35 358 349 16 30 52 53 50 51 46 44 42 36 30 39 54 22 19 62 61 33 60 48 35 17 23 32 35 30 22 22 15 7 341 305 292
61 358 41 348 345 353 359 329 353 356 311 45 48 8 332 77 60 50 40 352 14 10 10 17 29 34 38 30 26 16 2 360 57 67 45 33 34 43 47 39 24 26 10 9 5 8 22 10 360 5 4 355 354 315
32 1 4 92 324 306 308 338 9 9 15 11 2 330 54 78 87 68 14 19 31 351 347 21 34 40 30 21 18 17 20 32 57 72 73 57 48 40 36 28 19 359 337 351 355 357 350 345 343 343 338 332 339 335
37 7 341 341 18 11 21 37 35 19 344 342 306 313 79 36 58 33 349 350 329 337 45 46 38 31 27 23 18 12 14 7 46 46 148 58 55 40 21 16 13 344 356 14 3 3 357 0 0 359 356 355 1 4
5 2 310 12 31 48 38 16 20 10 335 272 298 8 52 50 29 16 326 325 308 25 41 34 25 16 19 22 31 26 20 14 17 22 18 9 5 17 7 9 12 12 7 3 27 30 10 7 6 0 357 4 6 2
34 345 9 46 45 44 40 17 70 44 36 42 41 52 56 44 12 337 348 11 25 30 30 30 20 14 15 11 9 19 41 26 21 11 358 358 359 356 5 13 15 13 8 5 3 360 2 357 5 6 9 7 11 360
325 284 133 91 98 102 104 121 134 112 82 73 91 111 146 178 198 309 351 8 21 30 27 17 25 27 18 16 9 360 357 10 355 353 358 352 8 23 19 16 10 6 2 360 358 3 1 360 4 1 9 11 16 14
291 311 320 156 139 138 158 185 141 114 145 183 172 189 211 188 148 81 8 359 26 27 18 4 14 18 10 5 7 5 330 334 343 352 9 27 34 20 10 7 2 356 355 358 3 7 6 6 3 360 354 356 2 6
263 229 119 148 160 181 164 176 167 157 163 195 153 155 88 277 40 103 104 42 37 19 10 7 11 12 357 354 6 356 355 22 60 42 38 37 29 8 355 355 356 358 359 1 1 0 5 5 5 2 359 355 352 350